THOR ABLESTAR DEB, 549

Orbit data source: Space-Track

THOR ABLESTAR DEB, 549 is space debris in LEO originally from a launch on Thu, 29 Jun 1961 UTC launched from the Air Force Eastern Test Range (AFETR). Debris objects in space refer to the collection of defunct objects orbiting the Earth. Examples of debris include non-operational satellites, rocket bodies, and fragments generated from explosions, collisions, or faulty payload assembly.

Loading next visibility...
Identifier
549, 1961-015GJ
Orbit
LEO
Country
Flag of USUS
Related business
Manufacturer
Unknown
Mission
Spacecraft
Bus & Motor
Unknown
Mass
Unknown
Launch date (UTC)
1961-06-29 (65 years ago)
Launch vehicle
Unknown
Launch site
Air Force Eastern Test Range (AFETR)
Object type
Payload
Rocket body
Debris
Shape & HBR
Unknown shape, 0.1 m
Radar Cross Section
Small (<0.1 m²)

Expand to show TLE details & history
Last TLE update: 12 hours ago

TLE from 12 hours ago
0 THOR ABLESTAR DEB
1 00549U 61015GJ  26119.89276618  .00000078  00000-0  24746-3 0  9998
2 00549  66.6964   3.7401 0214868 356.7690  90.3516 13.36450498156466
Epoch: 2026-04-29T21:25Z
TLE epoch observation values (Epoch: 2026-04-29T21:25:34.997Z)
Latitude
66.79909°
Longitude
-86.56103°
Altitude
1,137.7 km
Speed
7.288 km/s
True Right ascension
06h 10m 43s
True Declination
66° 40' 50"
Sunlit
Object was in daylight at epoch
Visualization orbit readout
Latitude
Unknown
Longitude
Unknown
Altitude
Unknown
Speed
Unknown
Apparent Right ascension
Unknown
Apparent Declination
Unknown
Sunlit
N/A
Visualization observer readout
Local Sidereal Time
17:26:55
Azimuth
Unknown
Elevation
Unknown
Doppler factor
Unknown
Orbital elements
Apogee altitude
1,282.109 km
Perigee altitude
959.845 km
Semi-major axis
7,499.114 km
Eccentricity
0.02149
Inclination
66.6964°
RAAN
3.7401°
Arg. of periapsis
356.769°
True anomaly
92.8126°
Mean anomaly
90.3516°
Eccentric anomaly
91.58223°
Mean motion
3.34217 °/min
Orbital period
107.71 mins
BSTAR
0.00024746
Loading maneuver chart data...
Computing Atmospheric mass density...

Documentation

Showing up to 5 results
|